sat.trackr.live / text

‹ back to catalog

STARLINK-35011

NORAD 66082 · 2025-235AA

PAYLOAD ACTIVE UNKNOWN

§ Identity

Operator
Country
US
Launch date
2025-10-19
Launch site
AFETR
Launch vehicle
Mass (kg)
RCS (m²)

Purposes: comms

External: N2YO · Heavens-Above · Gunter

§ Orbital elements

Epoch: 2026-05-25T00:18:57.024000Z

Period
94.01 min
Inclination
53.1616°
Eccentricity
0.0000523
Mean motion
15.31716933 rev/d
Perigee alt
470.3 km
Apogee alt
471.0 km
Semi-major
6,848.8 km
B*
6.0402e-4
RAAN
250.2715°
Arg perigee
113.4422°
Mean anomaly
246.6635°
Rev number
3,461

§ Raw data

STARLINK-350111 66082U 25235AA  26145.01316000  .00018435  00000+0  60402-3 0  99932 66082  53.1616 250.2715 0000523 113.4422 246.6635 15.31716933 34610

JSON: /api/v1/satellites/66082 · /tle

For live sub-satellite position, see the globe view (requires WebGL).

§ Visibility from observer

Set your observer location to see the next 7 days of passes ≥ 10°. The values pass through the URL so the page stays shareable.

No JS? Fill the form by hand. The geolocation button needs JavaScript.